| time (UTC) | temp C | wind direction | speed KPH | gust KPH | rain 1hr cm | rain 24hr cm | rain mn cm | humidity % | barometer mb |
| 20260504215512 | 25 | 225 | 0.0 | 0.0 | 0.00 | 0.43 | 0.43 | 30 | 1008.0 |
| 20260504215015 | 25 | 252 | 0.0 | 0.0 | 0.00 | 0.43 | 0.43 | 29 | 1008.0 |
| 20260504214510 | 25 | 217 | 0.0 | 0.0 | 0.00 | 0.43 | 0.43 | 29 | 1008.0 |
| 20260504214009 | 25 | 238 | 0.0 | 0.0 | 0.00 | 0.43 | 0.43 | 29 | 1008.0 |
| 20260504213512 | 25 | 225 | 0.0 | 0.0 | 0.00 | 0.43 | 0.43 | 30 | 1008.0 |
| 20260504213024 | 25 | 227 | 0.0 | 0.0 | 0.00 | 0.43 | 0.43 | 29 | 1008.0 |
| 20260504212509 | 25 | 205 | 0.0 | 8.0 | 0.00 | 0.43 | 0.43 | 30 | 1008.0 |
| 20260504212008 | 25 | 243 | 1.6 | 11.3 | 0.00 | 0.43 | 0.43 | 32 | 1008.0 |
| 20260504211507 | 25 | 232 | 6.4 | 12.9 | 0.00 | 0.43 | 0.43 | 31 | 1008.1 |
| 20260504211006 | 25 | 221 | 8.0 | 14.5 | 0.00 | 0.43 | 0.43 | 30 | 1008.1 |
| 20260504210506 | 25 | 240 | 8.0 | 12.9 | 0.00 | 0.43 | 0.43 | 30 | 1008.1 |
| 20260504210005 | 25 | 234 | 8.0 | 30.6 | 0.00 | 0.43 | 0.43 | 30 | 1008.2 |
| 20260504205505 | 25 | 232 | 9.7 | 14.5 | 0.00 | 0.43 | 0.43 | 30 | 1008.2 |
| 20260504205005 | 24 | 229 | 9.7 | 27.4 | 0.00 | 0.43 | 0.43 | 31 | 1008.2 |
| 20260504204507 | 24 | 248 | 9.7 | 27.4 | 0.00 | 0.43 | 0.43 | 32 | 1008.1 |
| 20260504204004 | 25 | 236 | 12.9 | 27.4 | 0.00 | 0.43 | 0.43 | 34 | 1008.2 |
| 20260504203505 | 25 | 236 | 11.3 | 30.6 | 0.00 | 0.43 | 0.43 | 32 | 1008.2 |
| 20260504203004 | 25 | 217 | 11.3 | 32.2 | 0.00 | 0.43 | 0.43 | 34 | 1008.2 |
| 20260504202504 | 25 | 233 | 11.3 | 32.2 | 0.00 | 0.43 | 0.43 | 33 | 1008.3 |
| 20260504202004 | 25 | 236 | 17.7 | 29.0 | 0.00 | 0.43 | 0.43 | 32 | 1008.2 |
| 20260504201502 | 24 | 195 | 12.9 | 32.2 | 0.00 | 0.43 | 0.43 | 33 | 1008.1 |
| 20260504201002 | 24 | 227 | 0.0 | 0.0 | 0.00 | 0.43 | 0.43 | 35 | 1008.2 |
| 20260504200502 | 24 | 225 | 0.0 | 0.0 | 0.00 | 0.43 | 0.43 | 34 | 1008.4 |
| 20260504200004 | 25 | 186 | 0.0 | 0.0 | 0.00 | 0.43 | 0.43 | 35 | 1008.3 |
| 20260504195600 | 25 | 251 | 0.0 | 0.0 | 0.00 | 0.43 | 0.43 | 34 | 1008.4 |
| 20260504195059 | 25 | 238 | 0.0 | 0.0 | 0.00 | 0.43 | 0.43 | 35 | 1008.6 |
| 20260504194659 | 24 | 170 | 0.0 | 0.0 | 0.00 | 0.43 | 0.43 | 35 | 1008.6 |
| 20260504194057 | 23 | 227 | 0.0 | 0.0 | 0.00 | 0.43 | 0.43 | 36 | 1008.8 |
| 20260504193557 | 24 | 244 | 0.0 | 0.0 | 0.00 | 0.43 | 0.43 | 35 | 1008.9 |
| 20260504193057 | 24 | 236 | 0.0 | 0.0 | 0.00 | 0.43 | 0.43 | 35 | 1009.0 |
| 20260504192555 | 24 | 234 | 0.0 | 0.0 | 0.00 | 0.43 | 0.43 | 36 | 1009.1 |
| 20260504192055 | 24 | 245 | 0.0 | 0.0 | 0.00 | 0.43 | 0.43 | 37 | 1009.1 |
| 20260504191615 | 24 | 211 | 0.0 | 0.0 | 0.00 | 0.43 | 0.43 | 34 | 1009.3 |
| 20260504191052 | 24 | 249 | 0.0 | 0.0 | 0.00 | 0.43 | 0.43 | 36 | 1009.4 |
| 20260504190552 | 23 | 221 | 0.0 | 0.0 | 0.00 | 0.43 | 0.43 | 35 | 1009.4 |
| 20260504190051 | 23 | 246 | 0.0 | 0.0 | 0.00 | 0.43 | 0.43 | 35 | 1009.7 |
| 20260504185551 | 23 | 211 | 0.0 | 0.0 | 0.00 | 0.43 | 0.43 | 36 | 1009.6 |
| 20260504185050 | 23 | 226 | 0.0 | 0.0 | 0.00 | 0.43 | 0.43 | 35 | 1009.8 |
| 20260504184600 | 23 | 244 | 0.0 | 0.0 | 0.00 | 0.43 | 0.43 | 35 | 1009.8 |
| 20260504184052 | 23 | 250 | 0.0 | 0.0 | 0.00 | 0.43 | 0.43 | 37 | 1009.8 |
| 20260504183551 | 23 | 198 | 0.0 | 0.0 | 0.00 | 0.43 | 0.43 | 38 | 1009.8 |
| 20260504183049 | 23 | 207 | 0.0 | 9.7 | 0.00 | 0.43 | 0.43 | 36 | 1009.8 |
| 20260504182553 | 23 | 242 | 1.6 | 9.7 | 0.00 | 0.43 | 0.43 | 36 | 1009.7 |
| 20260504182048 | 23 | 208 | 0.0 | 0.0 | 0.00 | 0.43 | 0.43 | 35 | 1009.9 |
| 20260504181547 | 23 | 247 | 0.0 | 0.0 | 0.00 | 0.43 | 0.43 | 38 | 1009.8 |
| 20260504181046 | 23 | 219 | 0.0 | 0.0 | 0.00 | 0.43 | 0.43 | 37 | 1009.8 |
| 20260504180547 | 23 | 225 | 0.0 | 0.0 | 0.00 | 0.43 | 0.43 | 38 | 1009.9 |
| 20260504180045 | 23 | 225 | 0.0 | 0.0 | 0.00 | 0.43 | 0.43 | 38 | 1009.9 |
| 20260504175546 | 23 | 234 | 0.0 | 6.4 | 0.00 | 0.43 | 0.43 | 37 | 1009.9 |
| 20260504175044 | 23 | 204 | 0.0 | 6.4 | 0.00 | 0.43 | 0.43 | 38 | 1010.0 |
| 20260504174542 | 23 | 236 | 0.0 | 0.0 | 0.00 | 0.43 | 0.43 | 40 | 1009.9 |
| 20260504174042 | 22 | 204 | 0.0 | 0.0 | 0.00 | 0.43 | 0.43 | 36 | 1009.9 |
| 20260504173540 | 22 | 210 | 0.0 | 0.0 | 0.00 | 0.43 | 0.43 | 38 | 1010.0 |
| 20260504173039 | 22 | 192 | 0.0 | 0.0 | 0.00 | 0.43 | 0.43 | 41 | 1010.0 |
| 20260504172539 | 22 | 233 | 0.0 | 0.0 | 0.00 | 0.43 | 0.43 | 39 | 1010.1 |
| 20260504172042 | 22 | 202 | 0.0 | 0.0 | 0.00 | 0.43 | 0.43 | 40 | 1010.1 |
| 20260504171540 | 22 | 240 | 0.0 | 0.0 | 0.00 | 0.43 | 0.43 | 39 | 1010.2 |
| 20260504171037 | 21 | 198 | 0.0 | 24.1 | 0.00 | 0.43 | 0.43 | 41 | 1010.2 |
| 20260504170537 | 21 | 202 | 14.5 | 25.7 | 0.00 | 0.43 | 0.43 | 41 | 1010.2 |
| 20260504151018 | 18 | 211 | 0.0 | 0.0 | 0.00 | 0.41 | 0.41 | 46 | 1011.0 |
| 20260504150521 | 18 | 209 | 0.0 | 0.0 | 0.00 | 0.41 | 0.41 | 46 | 1011.0 |
| 20260504141008 | 16 | 188 | 8.0 | 16.1 | 0.00 | 0.41 | 0.41 | 50 | 1011.8 |
| 20260504140504 | 16 | 181 | 9.7 | 16.1 | 0.00 | 0.41 | 0.41 | 50 | 1011.8 |
| 20260504130551 | 13 | 174 | 0.0 | 0.0 | 0.00 | 0.41 | 0.41 | 54 | 1012.1 |
| 20260504110544 | 12 | 238 | 0.0 | 0.0 | 0.00 | 0.41 | 0.41 | 53 | 1012.9 |
| 20260504100541 | 12 | 193 | 0.0 | 0.0 | 0.00 | 0.41 | 0.41 | 51 | 1013.0 |
| 20260504081538 | 11 | 192 | 0.0 | 0.0 | 0.00 | 0.41 | 0.41 | 53 | 1011.6 |
| 20260504081036 | 11 | 190 | 0.0 | 0.0 | 0.00 | 0.41 | 0.41 | 54 | 1011.6 |
| 20260504080536 | 11 | 200 | 0.0 | 0.0 | 0.00 | 0.41 | 0.41 | 55 | 1011.7 |
| 20260504050506 | 12 | 175 | 0.0 | 0.0 | 0.00 | 0.00 | 0.00 | 48 | 1013.9 |
| 20260504050004 | 12 | 165 | 0.0 | 0.0 | 0.00 | 0.00 | 0.00 | 48 | 1013.9 |
| 20260504045502 | 12 | 164 | 0.0 | 0.0 | 0.00 | 0.00 | 0.00 | 48 | 1013.9 |
| 20260504045001 | 12 | 154 | 0.0 | 0.0 | 0.00 | 0.00 | 0.00 | 48 | 1014.0 |
| 20260504044501 | 12 | 161 | 0.0 | 0.0 | 0.00 | 0.00 | 0.00 | 47 | 1014.2 |
| 20260504044002 | 12 | 158 | 0.0 | 0.0 | 0.00 | 0.00 | 0.00 | 47 | 1014.4 |
| 20260504043501 | 12 | 159 | 0.0 | 0.0 | 0.00 | 0.00 | 0.00 | 47 | 1014.3 |
| 20260504043110 | 12 | 159 | 0.0 | 0.0 | 0.00 | 0.00 | 0.00 | 47 | 1014.6 |
| 20260504042559 | 12 | 160 | 0.0 | 0.0 | 0.00 | 0.00 | 0.00 | 47 | 1014.3 |
| 20260504042057 | 12 | 149 | 0.0 | 0.0 | 0.00 | 0.00 | 0.00 | 47 | 1014.1 |
| 20260504041600 | 12 | 143 | 0.0 | 0.0 | 0.00 | 0.00 | 0.00 | 47 | 1013.9 |
| 20260504041057 | 12 | 164 | 0.0 | 0.0 | 0.00 | 0.00 | 0.00 | 48 | 1013.8 |
| 20260504040553 | 12 | 166 | 0.0 | 0.0 | 0.00 | 0.00 | 0.00 | 48 | 1013.8 |
| 20260504040052 | 12 | 155 | 0.0 | 0.0 | 0.00 | 0.00 | 0.00 | 48 | 1013.8 |
| 20260504035551 | 12 | 160 | 0.0 | 0.0 | 0.00 | 0.00 | 0.00 | 48 | 1013.7 |
| 20260504035055 | 12 | 177 | 0.0 | 0.0 | 0.00 | 0.00 | 0.00 | 48 | 1013.9 |
| 20260504034556 | 12 | 171 | 0.0 | 0.0 | 0.00 | 0.00 | 0.00 | 47 | 1014.0 |
| 20260504034052 | 12 | 166 | 0.0 | 0.0 | 0.00 | 0.00 | 0.00 | 47 | 1014.2 |
| 20260504033551 | 12 | 170 | 0.0 | 8.0 | 0.00 | 0.00 | 0.00 | 47 | 1014.3 |
| 20260504033057 | 12 | 171 | 0.0 | 0.0 | 0.00 | 0.00 | 0.00 | 47 | 1014.3 |
| 20260504032551 | 12 | 165 | 0.0 | 0.0 | 0.00 | 0.00 | 0.00 | 48 | 1014.4 |
| 20260504032050 | 12 | 163 | 0.0 | 0.0 | 0.00 | 0.00 | 0.00 | 49 | 1014.4 |
| 20260504031602 | 11 | 165 | 0.0 | 0.0 | 0.00 | 0.00 | 0.00 | 49 | 1014.5 |
| 20260504031050 | 11 | 164 | 0.0 | 0.0 | 0.00 | 0.00 | 0.00 | 49 | 1014.6 |
| 20260504030549 | 11 | 163 | 0.0 | 0.0 | 0.00 | 0.00 | 0.00 | 49 | 1014.7 |
| 20260504030110 | 11 | 166 | 0.0 | 0.0 | 0.00 | 0.00 | 0.00 | 50 | 1014.6 |
| 20260504025549 | 11 | 175 | 0.0 | 0.0 | 0.00 | 0.00 | 0.00 | 50 | 1014.7 |
| 20260504025050 | 11 | 177 | 0.0 | 0.0 | 0.00 | 0.00 | 0.00 | 51 | 1014.7 |
| 20260504024552 | 11 | 194 | 0.0 | 0.0 | 0.00 | 0.00 | 0.00 | 52 | 1014.7 |
| 20260504024048 | 10 | 181 | 0.0 | 0.0 | 0.00 | 0.00 | 0.00 | 53 | 1014.7 |
| 20260504023548 | 10 | 179 | 0.0 | 0.0 | 0.00 | 0.00 | 0.00 | 53 | 1014.8 |
| 20260504023048 | 10 | 160 | 0.0 | 0.0 | 0.00 | 0.00 | 0.00 | 53 | 1014.8 |
| 20260504022549 | 10 | 161 | 0.0 | 0.0 | 0.00 | 0.00 | 0.00 | 53 | 1014.8 |
| 20260504022048 | 11 | 158 | 0.0 | 0.0 | 0.00 | 0.00 | 0.00 | 52 | 1014.8 |
| 20260504021548 | 11 | 158 | 0.0 | 0.0 | 0.00 | 0.00 | 0.00 | 52 | 1014.8 |
| 20260504021050 | 11 | 158 | 0.0 | 0.0 | 0.00 | 0.00 | 0.00 | 51 | 1014.8 |
| 20260504020546 | 11 | 158 | 0.0 | 0.0 | 0.00 | 0.00 | 0.00 | 51 | 1014.8 |
| 20260504020047 | 11 | 158 | 0.0 | 0.0 | 0.00 | 0.00 | 0.00 | 50 | 1014.8 |
| 20260504015547 | 12 | 158 | 0.0 | 0.0 | 0.00 | 0.00 | 0.00 | 49 | 1014.8 |
| 20260504015047 | 12 | 158 | 0.0 | 0.0 | 0.00 | 0.00 | 0.00 | 47 | 1014.8 |
| 20260504014547 | 12 | 158 | 0.0 | 0.0 | 0.00 | 0.00 | 0.00 | 46 | 1014.8 |
| 20260504014046 | 12 | 158 | 0.0 | 0.0 | 0.00 | 0.00 | 0.00 | 45 | 1014.9 |
| 20260504013546 | 13 | 158 | 0.0 | 0.0 | 0.00 | 0.00 | 0.00 | 45 | 1014.8 |
| 20260504013049 | 13 | 158 | 0.0 | 0.0 | 0.00 | 0.00 | 0.00 | 44 | 1014.7 |
| 20260504012647 | 13 | 158 | 0.0 | 0.0 | 0.00 | 0.00 | 0.00 | 44 | 1014.7 |
| 20260504012047 | 13 | 158 | 0.0 | 0.0 | 0.00 | 0.00 | 0.00 | 43 | 1014.7 |
| 20260504011546 | 13 | 158 | 0.0 | 0.0 | 0.00 | 0.00 | 0.00 | 41 | 1014.5 |
| 20260504011044 | 13 | 158 | 0.0 | 0.0 | 0.00 | 0.00 | 0.00 | 41 | 1014.3 |
| 20260504010544 | 13 | 158 | 0.0 | 0.0 | 0.00 | 0.00 | 0.00 | 40 | 1014.1 |
| 20260504010045 | 14 | 159 | 0.0 | 0.0 | 0.00 | 0.00 | 0.00 | 39 | 1014.1 |
| 20260504005544 | 15 | 159 | 0.0 | 0.0 | 0.00 | 0.00 | 0.00 | 38 | 1014.0 |
| 20260504005047 | 15 | 191 | 0.0 | 0.0 | 0.00 | 0.00 | 0.00 | 37 | 1014.0 |
| 20260504004544 | 15 | 194 | 0.0 | 0.0 | 0.00 | 0.00 | 0.00 | 37 | 1014.0 |
| 20260504004044 | 15 | 199 | 0.0 | 0.0 | 0.00 | 0.00 | 0.00 | 37 | 1014.0 |
| 20260504003543 | 15 | 190 | 0.0 | 0.0 | 0.00 | 0.00 | 0.00 | 36 | 1014.0 |
| 20260504003046 | 15 | 216 | 0.0 | 0.0 | 0.00 | 0.00 | 0.00 | 36 | 1014.0 |
| 20260504002543 | 15 | 219 | 0.0 | 0.0 | 0.00 | 0.00 | 0.00 | 35 | 1013.9 |
| 20260504002043 | 15 | 215 | 0.0 | 0.0 | 0.00 | 0.00 | 0.00 | 35 | 1013.9 |
| 20260504001544 | 16 | 217 | 0.0 | 0.0 | 0.00 | 0.00 | 0.00 | 34 | 1013.9 |
| 20260504001043 | 16 | 192 | 0.0 | 0.0 | 0.00 | 0.00 | 0.00 | 34 | 1013.9 |
| 20260504000541 | 16 | 232 | 0.0 | 0.0 | 0.00 | 0.00 | 0.00 | 33 | 1013.9 |
| 20260504000101 | 16 | 211 | 0.0 | 0.0 | 0.00 | 0.00 | 0.00 | 33 | 1014.0 |
| 20260503235540 | 16 | 223 | 0.0 | 0.0 | 0.00 | 0.00 | 0.00 | 32 | 1014.1 |
| 20260503235040 | 16 | 218 | 0.0 | 0.0 | 0.00 | 0.00 | 0.00 | 31 | 1014.1 |
| 20260503234540 | 16 | 204 | 0.0 | 0.0 | 0.00 | 0.00 | 0.00 | 32 | 1014.0 |
| 20260503234040 | 16 | 231 | 0.0 | 0.0 | 0.00 | 0.00 | 0.00 | 32 | 1014.1 |
| 20260503233540 | 16 | 225 | 0.0 | 0.0 | 0.00 | 0.00 | 0.00 | 31 | 1014.1 |
| 20260503233041 | 17 | 237 | 0.0 | 0.0 | 0.00 | 0.00 | 0.00 | 31 | 1014.1 |
| 20260503232538 | 17 | 221 | 0.0 | 0.0 | 0.00 | 0.00 | 0.00 | 30 | 1014.2 |
| 20260503232038 | 17 | 250 | 0.0 | 0.0 | 0.00 | 0.00 | 0.00 | 31 | 1014.1 |
| 20260503231538 | 17 | 229 | 0.0 | 0.0 | 0.00 | 0.00 | 0.00 | 30 | 1014.1 |
| 20260503231037 | 17 | 213 | 0.0 | 0.0 | 0.00 | 0.00 | 0.00 | 30 | 1014.3 |
| 20260503230536 | 17 | 238 | 0.0 | 0.0 | 0.00 | 0.00 | 0.00 | 29 | 1014.3 |
| 20260503230035 | 17 | 198 | 0.0 | 0.0 | 0.00 | 0.00 | 0.00 | 29 | 1014.4 |
| 20260503225535 | 17 | 223 | 0.0 | 0.0 | 0.00 | 0.00 | 0.00 | 30 | 1014.4 |
| 20260503225033 | 17 | 243 | 0.0 | 0.0 | 0.00 | 0.00 | 0.00 | 29 | 1014.7 |
| 20260503224533 | 17 | 217 | 0.0 | 0.0 | 0.00 | 0.00 | 0.00 | 29 | 1014.8 |
| 20260503224034 | 17 | 211 | 0.0 | 0.0 | 0.00 | 0.00 | 0.00 | 29 | 1014.9 |
| 20260503223535 | 17 | 216 | 0.0 | 0.0 | 0.00 | 0.00 | 0.00 | 30 | 1015.0 |
| 20260503223032 | 17 | 215 | 0.0 | 0.0 | 0.00 | 0.00 | 0.00 | 29 | 1015.0 |
| 20260503222530 | 17 | 233 | 0.0 | 0.0 | 0.00 | 0.00 | 0.00 | 29 | 1015.1 |
| 20260503222030 | 17 | 232 | 0.0 | 0.0 | 0.00 | 0.00 | 0.00 | 30 | 1015.3 |
| 20260503221530 | 17 | 227 | 0.0 | 0.0 | 0.00 | 0.00 | 0.00 | 29 | 1015.2 |
| 20260503221029 | 17 | 217 | 0.0 | 0.0 | 0.00 | 0.00 | 0.00 | 30 | 1015.3 |
| 20260503220531 | 17 | 214 | 0.0 | 0.0 | 0.00 | 0.00 | 0.00 | 30 | 1015.2 |
| 20260503220028 | 17 | 227 | 0.0 | 0.0 | 0.00 | 0.00 | 0.00 | 30 | 1015.4 |